TimeEST,TemperatureF,Dew PointF,Humidity,Sea Level PressureIn,VisibilityMPH,Wind Direction,Wind SpeedMPH,Gust SpeedMPH,PrecipitationIn,Events,Conditions,WindDirDegrees,DateUTC
12:51 AM,32.0,23.0,69,30.64,10.0,ENE,3.5,-,N/A,,Clear,70,2013-11-05 05:51:00
1:51 AM,30.9,21.9,69,30.62,10.0,Calm,Calm,-,0.00,,Clear,0,2013-11-05 06:51:00
2:51 AM,30.9,24.1,76,30.64,10.0,North,3.5,-,N/A,,Mostly Cloudy,350,2013-11-05 07:51:00
3:51 AM,33.1,25.0,72,30.63,10.0,Calm,Calm,-,N/A,,Overcast,0,2013-11-05 08:51:00
4:51 AM,34.0,23.0,64,30.63,10.0,East,4.6,-,N/A,,Mostly Cloudy,90,2013-11-05 09:51:00
5:51 AM,33.1,24.1,70,30.64,10.0,NNE,3.5,-,N/A,,Overcast,20,2013-11-05 10:51:00
6:51 AM,33.1,27.0,78,30.64,10.0,Calm,Calm,-,N/A,,Partly Cloudy,0,2013-11-05 11:51:00
7:51 AM,37.0,25.0,62,30.64,10.0,ENE,4.6,-,N/A,,Overcast,70,2013-11-05 12:51:00
8:51 AM,39.9,27.0,60,30.65,10.0,NE,4.6,-,N/A,,Mostly Cloudy,40,2013-11-05 13:51:00
9:51 AM,44.1,28.9,55,30.64,10.0,East,3.5,-,N/A,,Overcast,90,2013-11-05 14:51:00
10:51 AM,48.0,32.0,54,30.64,10.0,Variable,3.5,-,N/A,,Overcast,0,2013-11-05 15:51:00
11:51 AM,52.0,35.1,53,30.61,10.0,ESE,3.5,-,N/A,,Overcast,120,2013-11-05 16:51:00
12:51 PM,52.0,37.0,57,30.59,10.0,Calm,Calm,-,N/A,,Overcast,0,2013-11-05 17:51:00
1:51 PM,55.9,39.9,55,30.56,10.0,Variable,3.5,-,N/A,,Mostly Cloudy,0,2013-11-05 18:51:00
2:51 PM,55.0,37.0,51,30.54,10.0,South,5.8,-,N/A,,Scattered Clouds,180,2013-11-05 19:51:00
3:51 PM,54.0,37.0,53,30.54,10.0,South,4.6,-,N/A,,Clear,190,2013-11-05 20:51:00
4:51 PM,53.1,37.9,57,30.53,10.0,SSW,5.8,-,N/A,,Clear,200,2013-11-05 21:51:00
5:51 PM,48.9,37.0,64,30.53,10.0,Calm,Calm,-,N/A,,Clear,0,2013-11-05 22:51:00
6:51 PM,45.0,37.0,74,30.55,10.0,Calm,Calm,-,N/A,,Partly Cloudy,0,2013-11-05 23:51:00
7:51 PM,45.0,37.0,74,30.54,10.0,Calm,Calm,-,N/A,,Partly Cloudy,0,2013-11-06 00:51:00
8:51 PM,48.0,39.0,71,30.53,10.0,East,3.5,-,N/A,,Mostly Cloudy,100,2013-11-06 01:51:00
9:51 PM,48.9,39.9,71,30.50,10.0,Calm,Calm,-,N/A,,Partly Cloudy,0,2013-11-06 02:51:00
10:51 PM,50.0,41.0,71,30.48,10.0,SSE,3.5,-,N/A,,Clear,160,2013-11-06 03:51:00
11:51 PM,46.0,39.9,79,30.49,10.0,Calm,Calm,-,N/A,,Overcast,0,2013-11-06 04:51:00